Precipitable_Water
0.65 0.67 0.71 0.75 0.79 0.81 0.81 0.83 0.85 0.87 0.89 0.89 0.89 0.91 0.91 0.93 0.93 0.93 0.95 0.95 0.95 0.95 0.95 0.95 0.97 0.97 0.97 0.99 0.99 0.97 0.97 0.97 0.95 0.95 0.95 0.95 0.97 0.97 0.97 0.97 0.95 0.93 0.91 0.89 0.89 0.87 0.85 0.79 0.77 0.75 0.73 0.71 0.71 0.69 0.69 0.69 0.67 0.67 0.67 0.67 0.65 0.61 0.57 0.51 0.48 0.42 0.40 0.36 0.36
0.63 0.67 0.71 0.75 0.79 0.81 0.83 0.83 0.85 0.87 0.89 0.91 0.91 0.91 0.91 0.91 0.91 0.91 0.93 0.93 0.93 0.95 0.95 0.97 0.97 0.97 0.97 0.99 0.97 0.97 0.95 0.93 0.93 0.93 0.93 0.93 0.95 0.95 0.95 0.95 0.93 0.91 0.89 0.87 0.85 0.83 0.81 0.79 0.73 0.71 0.69 0.69 0.69 0.69 0.69 0.69 0.69 0.69 0.69 0.69 0.63 0.55 0.48 0.44 0.42 0.40 0.38 0.38 0.38
0.61 0.65 0.69 0.73 0.75 0.77 0.79 0.81 0.81 0.85 0.87 0.89 0.89 0.91 0.91 0.91 0.91 0.89 0.89 0.91 0.93 0.93 0.93 0.95 0.95 0.97 0.97 0.97 0.97 0.95 0.93 0.93 0.91 0.91 0.91 0.93 0.93 0.93 0.93 0.93 0.93 0.89 0.87 0.85 0.83 0.81 0.79 0.75 0.71 0.71 0.71 0.71 0.71 0.71 0.71 0.71 0.71 0.71 0.69 0.65 0.57 0.50 0.44 0.42 0.42 0.40 0.40 0.40 0.40
0.61 0.63 0.67 0.71 0.71 0.75 0.77 0.77 0.79 0.79 0.81 0.83 0.85 0.87 0.89 0.91 0.91 0.91 0.91 0.91 0.89 0.89 0.89 0.87 0.89 0.91 0.91 0.93 0.89 0.89 0.91 0.91 0.89 0.89 0.89 0.89 0.91 0.91 0.91 0.91 0.91 0.89 0.87 0.83 0.81 0.79 0.77 0.77 0.75 0.75 0.73 0.73 0.73 0.73 0.73 0.71 0.69 0.65 0.61 0.53 0.51 0.50 0.48 0.46 0.44 0.44 0.42 0.42 0.42
0.59 0.61 0.63 0.67 0.69 0.71 0.73 0.77 0.77 0.79 0.79 0.81 0.83 0.85 0.85 0.87 0.87 0.89 0.89 0.87 0.87 0.85 0.85 0.85 0.85 0.85 0.85 0.83 0.83 0.85 0.85 0.87 0.87 0.87 0.87 0.87 0.87 0.89 0.89 0.89 0.89 0.87 0.85 0.83 0.81 0.79 0.77 0.77 0.77 0.77 0.75 0.75 0.73 0.71 0.69 0.67 0.63 0.59 0.55 0.53 0.51 0.51 0.50 0.48 0.46 0.46 0.44 0.44 0.42
0.57 0.59 0.63 0.65 0.67 0.69 0.71 0.73 0.77 0.79 0.81 0.81 0.81 0.83 0.83 0.85 0.85 0.83 0.83 0.83 0.83 0.83 0.83 0.83 0.83 0.81 0.79 0.79 0.79 0.81 0.81 0.83 0.83 0.85 0.85 0.85 0.85 0.85 0.85 0.87 0.87 0.87 0.85 0.85 0.81 0.79 0.79 0.79 0.77 0.77 0.75 0.73 0.71 0.69 0.67 0.65 0.63 0.59 0.57 0.57 0.55 0.53 0.51 0.50 0.48 0.46 0.44 0.44 0.42
0.55 0.59 0.61 0.65 0.65 0.67 0.69 0.71 0.75 0.79 0.81 0.81 0.81 0.81 0.81 0.81 0.81 0.81 0.81 0.83 0.83 0.83 0.81 0.79 0.77 0.77 0.75 0.75 0.77 0.77 0.79 0.79 0.81 0.81 0.81 0.83 0.83 0.83 0.83 0.83 0.85 0.85 0.85 0.83 0.81 0.81 0.79 0.79 0.77 0.77 0.75 0.75 0.73 0.73 0.71 0.71 0.69 0.67 0.65 0.61 0.59 0.55 0.53 0.51 0.50 0.46 0.44 0.42 0.40
0.53 0.57 0.61 0.63 0.65 0.67 0.69 0.71 0.73 0.77 0.81 0.81 0.81 0.81 0.79 0.79 0.79 0.79 0.81 0.83 0.83 0.83 0.81 0.81 0.77 0.75 0.75 0.75 0.75 0.77 0.77 0.79 0.79 0.81 0.81 0.83 0.83 0.83 0.83 0.83 0.83 0.83 0.83 0.83 0.81 0.81 0.81 0.79 0.79 0.77 0.77 0.77 0.75 0.73 0.73 0.73 0.71 0.69 0.67 0.63 0.59 0.57 0.55 0.51 0.50 0.48 0.46 0.42 0.40
0.50 0.55 0.59 0.63 0.65 0.65 0.67 0.69 0.73 0.77 0.79 0.81 0.81 0.81 0.81 0.81 0.79 0.79 0.79 0.81 0.79 0.79 0.81 0.81 0.79 0.77 0.75 0.75 0.75 0.75 0.77 0.79 0.81 0.81 0.81 0.81 0.81 0.81 0.81 0.81 0.81 0.81 0.81 0.81 0.81 0.79 0.79 0.79 0.79 0.77 0.77 0.77 0.75 0.73 0.73 0.73 0.71 0.69 0.67 0.65 0.61 0.57 0.55 0.51 0.50 0.48 0.48 0.44 0.42
0.46 0.51 0.57 0.63 0.65 0.65 0.67 0.69 0.73 0.75 0.79 0.79 0.81 0.81 0.81 0.81 0.79 0.77 0.77 0.77 0.77 0.77 0.77 0.77 0.77 0.77 0.77 0.75 0.75 0.75 0.75 0.79 0.81 0.81 0.81 0.79 0.79 0.79 0.79 0.79 0.79 0.79 0.79 0.79 0.79 0.79 0.77 0.77 0.77 0.77 0.77 0.77 0.75 0.75 0.73 0.73 0.69 0.67 0.65 0.63 0.61 0.57 0.53 0.51 0.50 0.48 0.46 0.44 0.42
0.44 0.53 0.61 0.63 0.65 0.65 0.67 0.69 0.71 0.75 0.77 0.79 0.79 0.79 0.79 0.79 0.77 0.77 0.77 0.79 0.77 0.75 0.75 0.75 0.75 0.75 0.75 0.75 0.75 0.75 0.75 0.75 0.77 0.77 0.77 0.77 0.77 0.77 0.77 0.77 0.77 0.77 0.77 0.77 0.77 0.77 0.77 0.77 0.75 0.75 0.75 0.75 0.75 0.73 0.73 0.71 0.67 0.63 0.61 0.61 0.59 0.55 0.51 0.50 0.48 0.46 0.44 0.42 0.40
0.44 0.51 0.59 0.63 0.65 0.67 0.67 0.69 0.71 0.73 0.77 0.77 0.77 0.77 0.77 0.77 0.77 0.77 0.77 0.77 0.75 0.75 0.75 0.75 0.73 0.73 0.73 0.75 0.75 0.75 0.73 0.73 0.73 0.73 0.73 0.75 0.75 0.75 0.75 0.75 0.75 0.75 0.77 0.77 0.77 0.77 0.77 0.75 0.75 0.73 0.73 0.73 0.73 0.71 0.69 0.67 0.61 0.59 0.57 0.55 0.53 0.51 0.50 0.46 0.44 0.42 0.40 0.38 0.36
0.44 0.50 0.59 0.63 0.65 0.67 0.67 0.69 0.69 0.73 0.75 0.77 0.77 0.77 0.77 0.75 0.77 0.77 0.77 0.75 0.75 0.75 0.75 0.73 0.71 0.71 0.71 0.73 0.73 0.73 0.73 0.73 0.71 0.71 0.71 0.73 0.73 0.73 0.75 0.75 0.75 0.77 0.77 0.77 0.77 0.77 0.75 0.75 0.73 0.71 0.71 0.69 0.69 0.67 0.65 0.57 0.55 0.51 0.50 0.48 0.46 0.46 0.44 0.42 0.42 0.38 0.36 0.34 0.34
0.44 0.50 0.57 0.61 0.65 0.67 0.67 0.67 0.69 0.73 0.75 0.75 0.77 0.77 0.75 0.75 0.77 0.77 0.77 0.75 0.75 0.75 0.75 0.73 0.71 0.69 0.69 0.71 0.71 0.71 0.71 0.71 0.71 0.71 0.71 0.71 0.73 0.73 0.75 0.75 0.75 0.75 0.75 0.75 0.75 0.73 0.73 0.71 0.71 0.67 0.65 0.63 0.63 0.61 0.57 0.51 0.50 0.46 0.44 0.42 0.40 0.40 0.40 0.38 0.38 0.36 0.34 0.32 0.32
0.44 0.50 0.55 0.59 0.63 0.65 0.67 0.67 0.69 0.73 0.75 0.75 0.75 0.75 0.77 0.77 0.77 0.79 0.77 0.75 0.75 0.75 0.75 0.73 0.71 0.69 0.69 0.69 0.69 0.71 0.71 0.71 0.71 0.71 0.71 0.71 0.73 0.73 0.73 0.73 0.73 0.73 0.73 0.71 0.71 0.69 0.67 0.65 0.65 0.63 0.59 0.57 0.55 0.53 0.50 0.44 0.42 0.40 0.38 0.38 0.36 0.36 0.36 0.36 0.36 0.34 0.32 0.30 0.30
0.46 0.48 0.53 0.57 0.61 0.63 0.65 0.67 0.69 0.73 0.75 0.75 0.75 0.75 0.75 0.75 0.77 0.77 0.77 0.77 0.77 0.75 0.75 0.73 0.71 0.69 0.69 0.69 0.69 0.69 0.71 0.71 0.71 0.71 0.71 0.71 0.73 0.73 0.71 0.69 0.69 0.69 0.67 0.65 0.65 0.63 0.61 0.59 0.57 0.55 0.53 0.50 0.48 0.44 0.40 0.38 0.38 0.38 0.36 0.36 0.36 0.34 0.34 0.34 0.34 0.32 0.32 0.30 0.30
0.48 0.48 0.51 0.55 0.59 0.61 0.65 0.67 0.71 0.73 0.75 0.75 0.75 0.73 0.73 0.73 0.75 0.75 0.77 0.77 0.77 0.75 0.75 0.73 0.71 0.71 0.69 0.69 0.69 0.69 0.69 0.71 0.71 0.71 0.71 0.71 0.71 0.69 0.67 0.65 0.65 0.63 0.63 0.59 0.57 0.55 0.53 0.53 0.51 0.50 0.48 0.44 0.42 0.40 0.36 0.36 0.36 0.36 0.36 0.36 0.34 0.34 0.34 0.32 0.32 0.32 0.30 0.30 0.30
0.48 0.50 0.50 0.51 0.57 0.61 0.63 0.67 0.71 0.73 0.75 0.75 0.75 0.73 0.73 0.71 0.71 0.73 0.75 0.75 0.75 0.75 0.75 0.75 0.73 0.71 0.69 0.67 0.69 0.69 0.69 0.71 0.71 0.71 0.71 0.71 0.69 0.65 0.63 0.61 0.59 0.59 0.57 0.55 0.53 0.51 0.50 0.48 0.46 0.44 0.42 0.40 0.38 0.38 0.36 0.36 0.36 0.36 0.36 0.34 0.34 0.34 0.32 0.32 0.32 0.30 0.30 0.30 0.30
0.50 0.51 0.50 0.50 0.53 0.59 0.63 0.67 0.69 0.73 0.75 0.75 0.75 0.75 0.73 0.71 0.69 0.71 0.71 0.73 0.75 0.75 0.75 0.75 0.73 0.73 0.71 0.69 0.69 0.69 0.69 0.69 0.69 0.69 0.69 0.69 0.65 0.61 0.57 0.55 0.55 0.55 0.53 0.51 0.50 0.48 0.44 0.44 0.42 0.40 0.40 0.38 0.36 0.36 0.36 0.36 0.36 0.34 0.34 0.34 0.34 0.34 0.32 0.32 0.32 0.30 0.30 0.30 0.28
0.51 0.53 0.51 0.48 0.50 0.55 0.61 0.65 0.69 0.73 0.75 0.75 0.75 0.75 0.73 0.73 0.71 0.71 0.71 0.73 0.73 0.75 0.75 0.75 0.73 0.73 0.71 0.69 0.69 0.69 0.69 0.67 0.67 0.67 0.67 0.67 0.59 0.55 0.53 0.51 0.51 0.51 0.50 0.48 0.46 0.44 0.42 0.40 0.40 0.38 0.38 0.36 0.36 0.36 0.36 0.34 0.34 0.34 0.34 0.34 0.32 0.32 0.32 0.32 0.32 0.30 0.30 0.30 0.28
0.53 0.55 0.53 0.51 0.50 0.51 0.55 0.63 0.69 0.73 0.75 0.75 0.75 0.75 0.75 0.75 0.73 0.71 0.71 0.73 0.75 0.75 0.75 0.75 0.73 0.73 0.71 0.69 0.69 0.67 0.67 0.65 0.65 0.65 0.65 0.63 0.59 0.53 0.50 0.50 0.48 0.48 0.46 0.44 0.42 0.40 0.40 0.38 0.38 0.36 0.36 0.36 0.36 0.36 0.34 0.34 0.34 0.34 0.32 0.32 0.32 0.32 0.32 0.32 0.32 0.30 0.30 0.28 0.28
0.53 0.57 0.57 0.53 0.50 0.50 0.51 0.59 0.65 0.71 0.73 0.73 0.73 0.75 0.75 0.75 0.75 0.73 0.73 0.75 0.75 0.75 0.75 0.75 0.73 0.73 0.71 0.69 0.67 0.67 0.65 0.63 0.63 0.63 0.63 0.61 0.57 0.51 0.48 0.48 0.46 0.44 0.42 0.42 0.40 0.38 0.38 0.36 0.36 0.36 0.36 0.36 0.36 0.36 0.34 0.34 0.34 0.34 0.32 0.32 0.32 0.32 0.32 0.32 0.32 0.30 0.30 0.30 0.28
0.55 0.57 0.57 0.57 0.51 0.50 0.50 0.53 0.65 0.71 0.73 0.73 0.73 0.73 0.75 0.75 0.75 0.75 0.75 0.75 0.75 0.75 0.75 0.75 0.73 0.73 0.71 0.71 0.67 0.65 0.63 0.61 0.61 0.61 0.59 0.57 0.53 0.50 0.48 0.46 0.44 0.42 0.42 0.40 0.38 0.38 0.38 0.36 0.36 0.36 0.36 0.36 0.36 0.36 0.34 0.34 0.34 0.34 0.32 0.32 0.32 0.32 0.32 0.32 0.30 0.30 0.30 0.28 0.28
0.55 0.57 0.59 0.57 0.53 0.50 0.48 0.50 0.63 0.69 0.71 0.71 0.71 0.73 0.73 0.73 0.75 0.75 0.75 0.75 0.75 0.75 0.75 0.75 0.75 0.75 0.73 0.71 0.67 0.65 0.61 0.59 0.59 0.59 0.57 0.53 0.51 0.48 0.46 0.44 0.44 0.42 0.40 0.40 0.40 0.38 0.38 0.38 0.38 0.38 0.36 0.36 0.36 0.36 0.36 0.34 0.34 0.34 0.34 0.32 0.32 0.32 0.32 0.32 0.30 0.30 0.30 0.28 0.28
0.55 0.57 0.59 0.59 0.55 0.51 0.50 0.48 0.61 0.67 0.69 0.71 0.71 0.71 0.71 0.73 0.73 0.73 0.75 0.75 0.75 0.75 0.75 0.75 0.75 0.75 0.73 0.71 0.69 0.65 0.61 0.59 0.59 0.57 0.53 0.51 0.48 0.46 0.46 0.44 0.44 0.42 0.42 0.40 0.40 0.40 0.38 0.38 0.38 0.38 0.38 0.36 0.36 0.36 0.36 0.36 0.34 0.34 0.34 0.34 0.32 0.32 0.32 0.32 0.30 0.30 0.30 0.28 0.28
0.57 0.57 0.57 0.57 0.55 0.53 0.50 0.48 0.57 0.63 0.67 0.69 0.71 0.71 0.71 0.71 0.71 0.73 0.73 0.73 0.73 0.73 0.73 0.75 0.73 0.73 0.73 0.69 0.65 0.63 0.61 0.59 0.57 0.55 0.51 0.48 0.46 0.46 0.44 0.44 0.44 0.42 0.42 0.42 0.40 0.40 0.40 0.38 0.38 0.38 0.38 0.36 0.36 0.36 0.34 0.34 0.34 0.34 0.34 0.34 0.34 0.32 0.32 0.32 0.30 0.30 0.30 0.30 0.28
0.55 0.57 0.57 0.57 0.57 0.53 0.50 0.46 0.55 0.61 0.65 0.67 0.69 0.69 0.69 0.71 0.71 0.71 0.71 0.71 0.71 0.71 0.71 0.73 0.73 0.71 0.71 0.67 0.63 0.61 0.59 0.59 0.55 0.53 0.50 0.48 0.46 0.44 0.44 0.44 0.44 0.44 0.42 0.42 0.40 0.40 0.40 0.38 0.38 0.38 0.36 0.36 0.36 0.34 0.34 0.34 0.34 0.34 0.34 0.34 0.34 0.32 0.32 0.32 0.30 0.30 0.30 0.30 0.30
0.55 0.57 0.57 0.57 0.57 0.53 0.50 0.46 0.51 0.57 0.63 0.65 0.67 0.67 0.69 0.69 0.69 0.69 0.69 0.69 0.69 0.71 0.71 0.71 0.71 0.71 0.69 0.65 0.63 0.61 0.59 0.57 0.53 0.51 0.48 0.46 0.46 0.44 0.44 0.44 0.44 0.44 0.44 0.42 0.42 0.40 0.40 0.38 0.38 0.38 0.36 0.36 0.36 0.34 0.34 0.34 0.34 0.34 0.34 0.34 0.34 0.32 0.32 0.32 0.32 0.32 0.30 0.30 0.32
0.55 0.55 0.57 0.57 0.57 0.55 0.51 0.48 0.50 0.53 0.59 0.63 0.65 0.67 0.67 0.69 0.69 0.69 0.69 0.67 0.67 0.67 0.67 0.69 0.69 0.69 0.67 0.65 0.63 0.61 0.59 0.55 0.51 0.50 0.46 0.46 0.44 0.44 0.44 0.44 0.44 0.44 0.44 0.42 0.40 0.40 0.40 0.38 0.38 0.38 0.36 0.36 0.36 0.34 0.34 0.34 0.34 0.34 0.34 0.34 0.34 0.32 0.32 0.32 0.32 0.32 0.32 0.32 0.32
0.55 0.55 0.57 0.57 0.57 0.55 0.53 0.48 0.48 0.51 0.57 0.61 0.63 0.65 0.67 0.67 0.67 0.67 0.67 0.67 0.67 0.67 0.67 0.67 0.67 0.67 0.65 0.65 0.63 0.61 0.59 0.57 0.51 0.48 0.46 0.44 0.44 0.44 0.44 0.44 0.44 0.44 0.44 0.42 0.42 0.40 0.40 0.40 0.38 0.38 0.36 0.36 0.36 0.36 0.34 0.34 0.34 0.34 0.34 0.34 0.34 0.32 0.32 0.32 0.32 0.32 0.32 0.32 0.32
0.55 0.55 0.55 0.55 0.57 0.55 0.53 0.50 0.50 0.51 0.57 0.61 0.63 0.63 0.65 0.65 0.65 0.65 0.65 0.65 0.65 0.67 0.65 0.65 0.65 0.67 0.65 0.65 0.63 0.61 0.59 0.57 0.50 0.46 0.44 0.44 0.42 0.44 0.44 0.44 0.44 0.44 0.44 0.44 0.42 0.42 0.40 0.40 0.38 0.38 0.36 0.36 0.36 0.36 0.36 0.34 0.34 0.34 0.34 0.34 0.34 0.32 0.32 0.32 0.32 0.32 0.32 0.32 0.32
0.55 0.55 0.55 0.55 0.57 0.57 0.57 0.53 0.51 0.53 0.57 0.59 0.61 0.63 0.63 0.65 0.65 0.65 0.65 0.67 0.65 0.65 0.63 0.63 0.65 0.65 0.65 0.63 0.61 0.59 0.57 0.55 0.50 0.46 0.42 0.42 0.42 0.42 0.44 0.44 0.44 0.44 0.44 0.44 0.42 0.42 0.42 0.40 0.40 0.38 0.38 0.36 0.36 0.36 0.36 0.34 0.34 0.34 0.34 0.34 0.34 0.32 0.32 0.32 0.32 0.32 0.32 0.32 0.30
0.55 0.55 0.55 0.55 0.57 0.57 0.57 0.55 0.53 0.53 0.57 0.57 0.59 0.61 0.63 0.63 0.65 0.65 0.65 0.65 0.65 0.65 0.63 0.63 0.65 0.65 0.65 0.63 0.61 0.59 0.57 0.53 0.50 0.46 0.44 0.42 0.42 0.44 0.44 0.44 0.44 0.44 0.44 0.44 0.44 0.44 0.42 0.42 0.40 0.38 0.38 0.36 0.36 0.36 0.36 0.36 0.34 0.34 0.34 0.34 0.34 0.32 0.32 0.32 0.32 0.32 0.32 0.32 0.30
0.55 0.55 0.55 0.55 0.55 0.57 0.57 0.55 0.53 0.55 0.55 0.57 0.59 0.61 0.63 0.63 0.63 0.63 0.63 0.65 0.65 0.63 0.63 0.63 0.65 0.65 0.65 0.63 0.61 0.59 0.55 0.51 0.50 0.46 0.44 0.42 0.42 0.42 0.44 0.44 0.44 0.44 0.44 0.44 0.44 0.44 0.44 0.42 0.40 0.38 0.38 0.36 0.36 0.36 0.36 0.36 0.34 0.34 0.34 0.34 0.34 0.32 0.32 0.32 0.32 0.30 0.30 0.30 0.30
0.53 0.53 0.55 0.55 0.55 0.57 0.57 0.55 0.53 0.55 0.55 0.55 0.57 0.59 0.61 0.61 0.61 0.63 0.63 0.63 0.63 0.63 0.63 0.63 0.65 0.65 0.65 0.63 0.61 0.57 0.53 0.51 0.48 0.46 0.44 0.44 0.42 0.42 0.42 0.42 0.44 0.44 0.46 0.46 0.46 0.44 0.44 0.42 0.42 0.40 0.38 0.36 0.36 0.36 0.36 0.36 0.34 0.34 0.34 0.34 0.32 0.32 0.32 0.32 0.32 0.30 0.30 0.30 0.30
0.53 0.53 0.53 0.55 0.55 0.55 0.55 0.55 0.53 0.53 0.55 0.55 0.57 0.59 0.59 0.59 0.61 0.61 0.61 0.61 0.61 0.61 0.61 0.63 0.63 0.63 0.63 0.61 0.59 0.55 0.51 0.50 0.48 0.46 0.44 0.44 0.42 0.42 0.42 0.44 0.44 0.46 0.46 0.46 0.46 0.46 0.44 0.42 0.42 0.40 0.38 0.36 0.36 0.36 0.36 0.34 0.34 0.34 0.34 0.32 0.32 0.32 0.32 0.32 0.32 0.32 0.32 0.30 0.30
0.53 0.53 0.53 0.53 0.55 0.55 0.55 0.53 0.53 0.53 0.55 0.55 0.57 0.57 0.57 0.59 0.59 0.59 0.61 0.61 0.59 0.59 0.59 0.63 0.63 0.61 0.61 0.61 0.57 0.55 0.51 0.50 0.48 0.46 0.44 0.44 0.44 0.42 0.42 0.44 0.44 0.46 0.46 0.46 0.46 0.46 0.44 0.42 0.40 0.40 0.38 0.38 0.36 0.36 0.36 0.34 0.34 0.34 0.34 0.32 0.32 0.32 0.32 0.32 0.32 0.32 0.32 0.30 0.30
0.53 0.53 0.53 0.53 0.53 0.55 0.55 0.55 0.53 0.53 0.53 0.53 0.55 0.57 0.57 0.57 0.57 0.59 0.59 0.59 0.59 0.57 0.59 0.61 0.61 0.61 0.61 0.59 0.57 0.53 0.50 0.48 0.48 0.46 0.44 0.44 0.44 0.44 0.44 0.44 0.46 0.46 0.48 0.48 0.46 0.46 0.44 0.42 0.40 0.40 0.38 0.36 0.36 0.36 0.34 0.34 0.34 0.32 0.32 0.32 0.32 0.32 0.32 0.32 0.32 0.32 0.32 0.30 0.30
0.53 0.53 0.53 0.53 0.53 0.53 0.55 0.55 0.53 0.53 0.51 0.53 0.53 0.55 0.55 0.55 0.57 0.57 0.59 0.59 0.59 0.59 0.59 0.59 0.61 0.61 0.61 0.59 0.57 0.53 0.50 0.48 0.46 0.46 0.44 0.44 0.44 0.44 0.44 0.46 0.46 0.48 0.48 0.48 0.48 0.46 0.44 0.42 0.40 0.40 0.38 0.36 0.36 0.36 0.34 0.34 0.34 0.32 0.32 0.32 0.32 0.32 0.32 0.32 0.32 0.32 0.30 0.30 0.30
0.53 0.53 0.53 0.53 0.53 0.53 0.55 0.55 0.55 0.53 0.53 0.51 0.53 0.53 0.55 0.55 0.57 0.59 0.59 0.59 0.59 0.59 0.59 0.59 0.59 0.61 0.59 0.59 0.55 0.51 0.50 0.48 0.46 0.46 0.44 0.44 0.44 0.44 0.46 0.46 0.46 0.46 0.48 0.48 0.48 0.46 0.44 0.42 0.40 0.40 0.38 0.38 0.36 0.36 0.34 0.34 0.34 0.32 0.32 0.32 0.32 0.32 0.32 0.32 0.30 0.30 0.30 0.32 0.30
0.51 0.53 0.53 0.53 0.53 0.53 0.55 0.55 0.55 0.55 0.53 0.51 0.53 0.53 0.55 0.57 0.57 0.59 0.59 0.59 0.59 0.59 0.59 0.59 0.59 0.59 0.59 0.57 0.53 0.51 0.48 0.46 0.46 0.44 0.44 0.44 0.44 0.46 0.46 0.46 0.46 0.46 0.48 0.48 0.48 0.46 0.44 0.42 0.42 0.40 0.38 0.38 0.36 0.36 0.34 0.34 0.32 0.32 0.32 0.32 0.32 0.32 0.30 0.30 0.30 0.30 0.30 0.30 0.30
Wind_Speed
33 32 32 32 32 32 32 31 30 30 30 31 31 32 32 33 33 33 33 34 35 35 36 36 37 37 37 37 38 38 39 39 40 41 42 42 43 44 44 45 46 46 45 43 42 41 41 40 39 39 38 37 37 36 35 34 34 34 34 34 34 34 34 32 30 28 27 27 26
34 33 32 32 32 32 31 30 30 30 31 32 32 32 32 32 33 33 33 34 35 35 35 36 36 36 36 36 37 37 38 38 39 39 40 40 41 41 42 43 44 44 42 41 40 40 39 38 37 37 36 35 35 34 33 33 33 33 33 33 34 34 33 30 28 27 26 26 25
36 35 34 33 33 33 32 31 30 30 31 32 32 32 32 32 32 32 32 33 34 34 34 35 35 35 35 35 35 36 36 36 37 37 38 38 38 39 40 41 41 41 40 39 40 40 39 37 36 35 35 34 33 33 32 32 32 32 33 34 35 33 31 29 27 26 25 25 24
39 37 36 35 35 35 34 33 32 31 31 31 31 31 31 31 31 31 32 32 33 34 34 35 35 35 35 35 34 34 34 35 35 36 35 35 36 36 37 39 39 39 38 38 38 38 37 36 36 35 34 33 32 31 31 31 31 32 33 34 34 32 29 28 26 26 25 25 24
41 40 38 37 37 36 36 35 34 33 33 32 32 32 32 31 30 30 30 31 31 32 33 34 34 35 35 35 35 34 34 35 35 35 34 33 33 34 35 36 37 37 36 36 36 36 36 35 35 34 33 32 31 30 30 30 31 32 33 34 33 31 28 27 26 26 26 25 25
43 42 41 40 38 38 37 37 36 35 34 33 32 32 32 31 30 30 29 29 29 30 31 31 32 32 32 33 34 34 34 34 34 33 32 31 31 31 32 34 34 34 34 34 35 35 35 35 34 34 33 32 31 30 30 30 31 33 33 33 31 29 28 27 27 27 26 26 24
44 44 43 42 40 39 38 38 37 36 35 34 33 32 32 32 31 30 30 29 29 30 30 30 30 30 30 30 31 32 33 32 31 30 30 30 30 30 31 32 33 32 32 32 33 34 35 35 34 33 33 32 31 31 31 31 32 33 32 31 30 29 28 28 28 27 26 25 24
45 45 44 43 42 40 39 38 38 37 36 35 34 33 32 32 32 32 31 30 30 30 31 31 31 30 29 29 29 30 31 31 30 29 29 30 31 30 30 31 32 32 32 32 32 33 33 34 34 34 34 34 33 32 32 32 32 32 31 30 30 29 29 29 28 27 26 25 23
45 45 45 44 43 41 40 39 38 38 37 36 35 34 33 33 33 32 31 31 31 31 31 31 31 30 30 29 29 29 30 30 30 30 30 30 30 30 30 30 31 32 32 32 32 32 32 32 34 35 35 35 34 33 33 32 32 31 30 29 29 29 29 28 27 26 25 24 23
46 46 46 45 44 43 41 40 39 39 38 37 36 35 34 34 34 33 32 31 32 32 32 32 31 30 29 29 29 29 29 30 30 29 28 28 29 29 29 30 30 31 31 31 31 31 31 31 32 33 34 34 33 33 32 32 31 30 29 29 29 29 28 28 26 25 24 24 23
47 47 47 47 46 44 43 41 40 39 39 38 37 36 35 35 35 34 33 32 32 32 33 33 32 31 30 29 28 28 28 27 26 25 25 25 26 27 28 28 28 28 29 30 30 30 30 30 30 30 31 31 31 31 31 31 30 29 29 29 29 29 28 27 26 25 24 23 22
47 47 48 48 47 46 44 43 41 40 39 38 37 36 36 36 35 35 34 33 33 33 33 33 33 33 32 30 28 26 25 24 23 22 22 23 24 25 26 26 26 26 27 27 28 29 29 28 28 28 29 29 29 29 29 29 29 28 29 29 29 28 27 26 25 24 23 22 21
47 47 48 48 48 46 45 43 42 41 39 38 36 35 35 35 36 35 35 34 34 33 32 33 33 33 33 32 30 28 26 24 22 21 21 22 23 24 25 25 25 25 25 26 27 27 27 27 27 27 27 27 27 27 27 27 27 27 28 28 27 26 25 24 23 22 22 21 21
47 47 48 48 48 47 46 44 42 41 39 38 36 35 34 35 35 35 35 35 34 33 33 32 33 33 33 33 32 31 29 27 25 24 23 22 23 24 24 24 24 24 25 25 26 27 27 27 27 26 26 26 25 25 25 26 26 26 26 26 25 24 22 21 21 21 20 20 20
47 47 47 48 47 47 46 44 43 41 39 37 35 34 34 34 35 36 36 35 34 34 33 33 33 33 33 33 33 32 31 30 29 28 26 25 24 24 24 23 23 24 24 25 26 27 27 27 27 26 26 25 25 25 25 25 25 25 24 23 22 21 20 19 19 19 20 19 19
45 46 46 47 47 47 46 44 43 41 39 37 35 34 34 34 35 36 35 34 33 33 33 33 33 33 33 33 32 31 31 31 30 30 29 28 27 26 25 24 24 24 24 25 26 26 27 27 27 27 26 25 25 25 24 24 23 22 21 20 19 19 18 18 18 18 18 18 18
44 44 45 46 47 47 46 45 43 41 39 38 36 35 35 35 35 35 35 33 33 33 33 33 33 33 33 32 31 29 29 29 29 29 29 29 29 28 28 27 26 25 25 25 25 26 26 27 27 27 26 26 25 24 23 22 21 20 19 19 18 18 17 17 17 17 17 17 17
42 42 43 45 47 47 47 45 44 41 40 39 38 37 36 35 35 35 35 35 34 33 33 33 33 33 32 31 30 28 27 26 27 28 28 29 29 29 29 28 28 27 26 26 26 26 26 27 27 26 26 25 24 23 22 21 20 20 19 18 18 18 17 17 17 17 17 16 16
40 41 41 43 46 47 46 45 44 42 40 40 40 39 37 36 36 36 35 35 34 33 33 33 33 33 32 31 29 27 26 25 26 27 28 28 28 28 28 28 27 27 27 26 27 27 27 27 26 26 25 24 22 22 21 20 19 19 19 18 18 18 17 17 17 16 16 16 16
39 39 40 41 44 46 46 45 44 42 41 40 40 40 39 38 37 37 36 35 34 33 33 34 33 33 32 31 29 27 25 24 25 26 27 27 27 27 27 27 26 26 26 26 27 27 26 26 25 25 23 22 21 21 20 19 19 18 18 18 17 17 17 16 16 16 16 15 15
37 38 38 39 41 44 46 46 45 43 41 41 41 41 40 39 38 38 37 36 35 34 33 33 33 33 32 31 29 27 25 24 24 26 26 26 26 26 26 26 26 25 26 26 26 26 26 25 24 23 22 21 21 20 19 19 18 18 17 17 17 16 16 16 15 15 15 15 15
35 36 36 37 39 42 44 46 45 43 42 42 42 42 42 40 39 39 38 36 35 34 34 34 33 33 32 31 29 27 25 24 24 26 26 26 26 26 26 25 25 25 25 25 25 25 25 24 23 22 21 21 20 19 18 18 17 17 17 16 16 16 15 15 15 14 14 14 14
33 34 35 35 37 39 42 44 44 43 41 41 42 43 43 42 41 39 38 36 35 34 33 33 33 33 32 31 29 27 25 24 24 25 26 26 26 26 26 25 25 25 25 25 25 25 24 23 23 22 21 20 19 18 18 17 17 17 16 16 16 15 15 15 14 14 14 14 14
31 32 33 34 35 37 39 42 42 41 40 40 40 41 42 41 40 39 38 37 35 34 33 32 32 32 32 31 29 27 25 24 24 25 26 26 26 26 26 26 25 25 25 24 24 24 24 23 22 21 20 19 18 18 17 17 17 17 16 16 16 15 15 15 14 14 14 14 14
30 31 32 33 34 35 37 39 40 39 38 37 37 38 38 39 38 38 38 37 36 34 33 33 32 32 32 31 30 28 26 25 24 25 25 26 26 26 26 26 25 25 24 24 24 24 23 22 22 21 20 19 18 18 17 17 17 17 17 16 16 16 15 15 15 15 14 14 15
28 29 30 32 33 35 36 38 39 39 37 35 34 34 34 35 36 37 37 37 36 35 34 33 33 33 32 32 31 29 27 26 25 25 25 25 26 26 26 25 24 24 24 24 24 24 23 22 22 21 20 19 19 18 18 18 17 17 17 17 16 16 16 15 15 15 15 15 15
27 28 29 30 32 34 36 38 40 40 39 36 34 32 32 33 34 36 37 37 36 35 34 33 33 33 33 32 32 31 29 28 27 26 25 25 25 25 25 24 24 23 23 24 24 24 23 22 22 21 20 20 19 19 18 18 18 18 17 17 17 16 16 16 16 16 16 15 15
26 26 27 29 31 33 35 38 40 42 41 40 37 35 34 33 34 35 37 37 36 35 34 33 33 33 33 32 32 32 31 29 28 27 26 25 25 25 24 24 23 23 23 24 24 24 23 22 22 21 21 20 20 19 19 19 18 18 17 17 17 17 17 17 16 16 16 16 16
24 25 26 27 29 31 34 37 40 42 43 43 41 39 36 35 35 35 36 37 36 35 34 33 33 32 32 33 32 32 31 31 29 28 27 26 25 25 25 24 23 24 24 25 25 24 23 23 22 21 21 20 20 19 19 19 18 18 18 17 17 17 17 17 17 17 16 16 16
22 23 24 25 27 29 31 34 38 41 43 43 42 41 39 38 36 36 36 37 37 36 35 34 33 33 33 33 33 32 32 31 30 29 28 27 26 26 26 25 24 24 25 25 25 24 24 23 22 22 21 21 20 20 19 19 18 18 18 18 18 17 17 17 17 17 16 16 16
20 21 22 24 25 27 29 31 35 38 40 41 42 41 40 39 38 37 37 37 37 37 36 35 34 34 34 34 33 33 33 32 31 30 29 28 28 27 27 26 25 25 26 26 25 25 24 23 23 22 22 21 21 20 20 19 19 18 18 18 18 18 17 17 17 17 16 16 15
19 19 20 22 24 25 26 28 32 35 38 39 40 41 40 39 38 37 36 36 36 36 36 36 35 34 34 35 34 34 33 33 32 32 31 30 29 28 27 27 26 26 26 26 25 25 24 23 23 22 22 21 21 20 20 19 19 19 18 18 18 17 17 17 17 16 16 15 15
18 18 18 20 22 24 25 27 29 33 36 38 39 40 39 38 37 35 34 34 35 35 36 36 35 34 35 36 35 35 34 34 33 32 32 31 30 29 28 27 27 26 26 26 25 24 24 23 22 22 21 21 20 20 20 20 19 19 18 18 18 17 17 17 16 16 16 15 15
18 17 17 18 20 22 24 25 28 31 34 36 38 38 38 37 35 34 33 34 34 35 35 35 34 34 35 37 37 36 34 33 33 32 32 31 30 30 29 28 27 26 26 25 24 24 23 22 22 21 21 21 20 20 20 20 19 19 18 18 17 17 17 16 16 16 15 15 15
18 17 17 18 19 21 23 25 27 30 33 35 37 37 36 35 35 34 34 34 35 35 35 35 33 33 35 37 38 37 35 33 33 32 32 31 31 30 29 28 27 26 26 25 24 23 23 22 22 21 21 21 20 20 20 20 20 19 19 18 17 17 16 16 16 15 15 15 15
19 18 18 18 19 20 22 23 26 29 32 35 36 36 36 35 35 35 35 35 35 35 35 34 32 32 34 37 39 38 36 34 33 32 31 31 31 30 29 28 27 27 26 25 24 23 23 23 22 22 21 21 21 21 21 21 20 19 19 18 17 17 16 16 15 15 15 15 14
20 19 19 19 19 20 21 22 24 27 31 34 36 36 36 36 36 36 36 36 35 35 34 33 32 32 34 37 39 38 36 34 33 32 32 31 31 30 29 28 27 27 26 25 24 24 23 23 22 22 22 21 21 21 21 21 20 19 19 18 17 17 16 16 15 15 15 14 14
21 20 19 18 19 20 20 22 23 26 30 33 35 36 37 36 36 36 36 36 35 34 34 34 33 33 34 37 38 38 36 34 33 32 32 31 30 30 29 28 27 27 26 25 24 24 24 23 23 23 22 22 22 22 21 21 20 19 19 18 17 17 16 16 16 15 14 14 13
21 20 19 19 18 19 20 21 23 25 29 32 35 36 37 36 35 36 36 36 35 35 35 34 33 33 34 37 39 38 36 34 33 32 31 31 30 29 29 28 28 27 26 26 25 25 24 24 23 23 23 22 22 22 22 21 20 19 19 18 17 17 16 16 15 15 14 13 13
21 20 20 19 19 19 20 21 22 24 27 31 34 36 36 35 35 35 35 35 36 35 35 34 33 32 34 36 39 39 37 34 33 32 31 30 30 30 29 28 28 27 26 26 26 25 25 24 24 23 23 23 23 22 22 21 20 19 19 18 18 17 16 16 15 14 14 13 13
20 20 20 20 19 19 20 21 22 24 27 30 33 35 36 35 35 34 34 35 35 35 34 33 32 32 33 35 38 39 37 34 33 32 31 30 30 30 29 29 28 28 27 27 26 26 25 25 24 24 23 23 23 22 22 21 20 20 19 19 18 17 17 16 15 14 14 13 13
Wind_Direction
268 268 268 267 266 264 262 261 261 261 261 260 260 259 257 256 255 254 253 253 252 252 251 251 251 250 250 249 248 247 247 246 246 246 245 245 244 244 245 246 243 239 237 237 235 234 232 231 231 231 231 232 233 234 236 237 239 240 240 240 240 241 241 241 242 242 242 243 243
265 264 264 264 263 262 260 258 258 259 259 258 257 256 254 252 251 251 251 251 250 249 249 249 248 248 247 247 247 246 246 245 245 244 244 244 244 245 246 245 239 235 232 231 230 229 227 227 227 228 230 232 233 235 237 238 238 238 238 238 239 239 240 240 240 240 240 240 240
264 262 261 261 260 259 258 256 256 256 257 256 255 254 253 251 250 249 249 248 248 248 247 247 247 246 246 246 246 246 245 244 244 243 244 244 245 246 246 243 236 230 227 227 227 226 225 224 226 228 231 233 235 237 238 238 237 236 236 236 237 238 238 238 238 238 238 238 240
265 263 261 259 258 257 256 255 254 254 254 254 253 252 252 251 250 249 248 248 248 247 247 247 247 246 246 246 245 245 245 244 244 244 245 244 244 243 242 239 232 227 224 224 225 226 225 226 228 231 233 235 236 237 237 236 235 234 234 235 237 237 237 237 237 237 238 239 240
266 264 262 260 259 257 257 256 254 253 252 252 251 251 251 251 251 250 249 249 249 249 248 247 247 246 246 246 245 245 244 244 244 244 243 241 239 237 236 234 229 225 223 224 226 227 228 228 230 233 234 235 236 235 234 233 232 232 234 235 236 236 236 235 235 236 238 239 240
266 265 263 262 260 258 257 255 253 252 251 250 250 249 249 249 249 249 248 249 250 249 248 247 246 246 245 245 244 243 243 242 241 240 238 237 236 235 233 231 227 225 224 224 226 228 229 230 232 233 235 235 235 234 232 231 231 232 234 235 235 234 234 233 234 236 236 237 237
265 264 263 262 261 259 257 255 253 251 250 249 248 248 248 248 248 247 247 248 249 248 247 246 245 245 245 244 243 241 239 238 236 235 235 236 238 238 235 231 228 226 225 226 226 228 229 230 231 233 234 234 233 231 231 231 232 233 233 233 232 231 231 231 233 234 234 234 234
265 263 262 261 261 260 258 255 252 250 248 248 246 246 246 247 247 247 247 248 248 247 246 246 245 246 246 245 243 240 236 234 233 234 236 237 240 239 235 231 228 228 228 229 229 229 229 229 230 231 232 232 231 230 230 231 232 232 231 229 228 228 228 230 231 233 233 232 233
265 262 261 260 260 259 258 255 252 249 248 247 246 245 245 245 246 246 246 247 247 245 244 244 244 245 246 246 244 241 238 235 235 236 237 238 239 238 235 231 230 230 231 231 230 228 228 229 230 230 230 230 229 229 230 230 230 230 228 227 226 226 227 229 231 232 233 233 233
265 262 260 259 258 258 257 256 253 250 247 246 245 245 244 245 245 245 245 246 245 243 241 240 240 241 242 242 241 239 238 236 235 235 235 235 235 234 232 230 229 230 231 231 229 226 225 227 228 229 229 229 228 229 229 230 229 228 227 226 225 225 227 229 232 233 234 234 233
266 262 259 257 256 256 256 255 253 251 248 246 245 244 244 244 244 244 244 244 242 241 239 237 236 236 237 237 235 234 232 231 229 228 228 228 228 228 227 227 227 228 229 228 227 225 224 225 226 226 226 227 227 227 227 227 227 226 225 225 224 225 226 229 232 233 233 233 232
266 262 259 256 254 254 254 254 253 251 248 246 244 243 243 243 242 242 242 241 239 238 237 236 234 234 234 233 230 227 225 223 222 221 222 223 224 224 224 224 225 225 226 225 224 224 223 223 222 222 222 222 223 224 224 224 224 223 222 221 222 223 225 227 229 231 231 230 230
266 262 259 255 252 251 251 252 252 250 248 246 245 244 243 242 241 240 240 238 237 236 236 235 233 232 232 231 229 227 224 221 221 222 224 223 223 222 222 222 223 223 224 223 222 221 220 219 218 217 217 218 219 220 219 219 218 218 217 217 219 220 223 224 226 226 227 227 228
266 262 258 254 251 249 249 249 249 248 246 245 245 244 243 241 239 238 237 236 235 234 234 234 234 233 233 232 231 229 227 226 226 227 227 225 223 221 221 221 222 222 222 221 220 218 216 215 213 213 213 213 214 213 213 213 213 213 213 215 216 218 220 221 221 222 223 224 226
266 261 257 253 250 248 247 247 247 245 244 243 243 243 242 240 238 235 234 233 233 233 234 234 235 235 235 235 234 232 230 230 230 230 229 227 224 222 221 221 221 221 221 219 218 216 214 212 211 210 210 209 209 208 208 209 209 210 212 213 214 215 216 217 218 220 221 223 226
265 261 256 252 248 245 245 245 244 243 241 241 241 241 240 238 236 233 232 231 231 232 233 234 235 236 237 236 236 234 233 232 232 231 230 228 226 224 223 222 222 221 220 218 217 215 213 212 211 210 209 208 207 206 207 207 208 209 211 212 212 213 213 215 217 219 222 224 227
262 259 255 250 246 243 242 241 241 240 239 238 238 237 237 236 234 232 231 230 231 231 232 233 235 236 237 237 237 236 235 233 232 231 230 228 227 227 227 226 225 224 222 219 217 216 214 213 212 211 210 209 209 209 209 210 211 211 211 212 212 212 214 216 218 221 224 227 230
259 256 253 248 244 241 239 238 238 237 236 236 235 235 234 234 232 231 231 231 232 232 232 231 233 234 235 235 236 236 235 234 232 231 230 228 228 228 229 229 228 226 224 222 220 218 217 215 214 213 213 212 212 213 213 213 214 214 214 214 214 215 217 219 222 225 228 231 233
256 254 251 247 242 239 237 236 235 235 234 234 233 233 232 231 231 231 231 231 232 233 232 231 232 233 234 234 234 234 235 233 231 230 229 228 227 228 228 228 227 226 224 223 221 220 218 217 216 215 214 214 214 214 214 214 214 214 214 215 216 217 219 221 224 227 230 232 234
255 253 250 246 242 238 235 234 233 233 233 233 232 231 230 229 229 230 230 231 231 232 232 232 231 232 233 232 232 232 233 232 230 228 227 226 226 226 225 225 224 223 221 220 219 218 217 216 215 214 213 213 212 212 211 211 212 212 213 214 216 217 219 221 224 227 229 231 234
257 253 250 246 242 238 234 233 232 232 233 233 232 230 229 228 228 229 230 231 231 231 231 230 230 231 231 231 230 230 231 231 228 226 225 224 223 222 221 220 219 218 217 216 215 214 213 212 211 211 210 209 208 208 207 208 208 209 211 212 214 215 217 220 222 225 227 230 233
259 255 251 247 243 238 234 232 231 231 233 233 232 231 229 228 228 228 229 230 230 230 230 229 228 229 230 230 228 228 228 228 226 224 223 222 220 218 217 216 215 214 213 212 211 210 209 208 208 207 207 206 205 205 205 205 206 207 208 210 211 213 215 218 221 223 226 229 232
261 257 253 249 244 239 235 232 230 231 233 233 233 231 230 229 228 228 228 229 229 229 229 228 226 227 228 228 226 225 224 224 222 221 220 218 216 214 212 212 211 210 210 209 207 206 205 205 205 205 205 204 203 203 204 204 205 205 206 207 209 212 215 218 221 224 227 230 234
264 259 254 249 245 240 236 232 230 230 231 231 230 229 228 228 227 226 226 227 227 227 227 226 224 224 225 224 223 222 221 219 218 216 215 213 211 210 209 208 208 208 208 207 206 205 204 204 204 204 204 204 203 203 204 204 205 205 205 207 209 212 215 219 222 226 230 233 237
266 261 256 250 246 241 236 231 227 225 225 225 224 223 223 223 223 224 224 224 224 225 225 224 221 221 221 221 221 220 218 216 214 212 211 209 208 207 207 207 206 206 206 206 205 204 204 204 204 204 204 204 204 204 204 205 205 206 207 208 211 214 217 221 225 229 233 236 239
268 263 257 251 246 241 236 231 225 222 220 220 218 217 216 217 218 220 221 221 222 223 224 223 220 219 219 220 220 219 217 215 213 211 208 206 205 205 206 206 206 206 205 204 203 202 203 203 203 203 204 204 204 205 205 206 207 208 209 212 214 217 220 223 227 231 234 237 239
270 264 258 252 247 242 237 231 225 221 219 219 218 217 215 215 216 217 219 220 220 221 222 222 219 218 218 219 219 218 217 216 214 211 208 206 204 204 204 205 205 204 203 202 201 201 201 201 202 202 203 204 205 206 207 208 209 211 213 215 218 220 223 225 228 231 233 236 238
271 265 259 253 248 243 238 233 227 223 221 220 220 220 219 218 217 218 219 219 220 220 221 221 219 218 217 218 218 217 217 216 214 212 209 206 204 203 203 203 202 201 200 199 199 199 200 200 201 202 203 204 205 207 208 209 211 213 215 218 220 222 224 226 228 230 231 233 236
271 266 260 254 249 244 239 235 230 226 223 222 222 223 223 222 221 220 219 219 220 220 221 221 221 220 218 217 218 217 216 215 214 212 209 206 204 203 202 201 200 199 198 197 197 198 199 200 201 202 203 205 206 208 210 211 213 215 217 219 220 222 224 226 227 229 230 232 235
272 266 261 256 250 245 241 236 232 228 225 224 224 224 225 225 224 223 222 221 221 222 223 223 223 222 219 218 217 216 215 214 213 212 209 206 204 202 201 200 199 198 197 197 197 198 199 200 201 202 204 205 207 209 211 212 214 215 217 218 219 221 223 225 226 227 229 232 234
273 267 261 257 252 247 242 238 233 229 226 225 224 225 226 226 226 225 224 224 224 224 224 225 225 223 220 217 216 216 215 213 212 211 209 206 204 202 201 200 198 197 197 197 198 199 200 201 202 203 205 206 208 210 211 212 213 214 216 217 219 220 222 224 226 227 229 232 235
275 268 261 257 253 250 245 240 235 229 226 224 224 224 225 225 226 226 226 226 226 225 225 224 224 222 218 216 215 214 213 212 211 210 208 206 204 203 201 200 199 198 198 198 200 200 201 202 203 205 206 207 209 210 210 211 212 214 215 217 219 221 223 225 227 228 230 232 236
278 269 261 255 252 250 247 242 236 229 225 223 222 223 223 224 225 225 225 224 224 224 223 223 222 219 215 213 212 211 210 210 209 208 207 206 204 203 202 201 200 200 199 200 201 202 203 204 205 206 206 208 209 210 210 211 213 214 216 218 220 222 224 225 227 229 231 234 238
280 270 261 254 251 249 247 243 236 229 223 221 220 220 221 221 221 220 219 218 219 219 219 219 218 216 212 210 208 207 207 207 206 205 205 204 203 202 202 202 202 201 201 201 203 204 205 206 206 207 207 208 210 211 211 212 214 215 217 219 221 223 225 226 228 230 232 235 238
283 273 263 255 250 248 246 243 236 228 222 218 217 216 217 217 217 215 213 212 213 214 215 215 214 212 209 208 206 205 205 204 203 203 202 202 202 202 202 202 203 202 202 202 203 205 206 207 208 208 208 209 211 212 212 213 214 215 217 219 221 223 225 227 228 231 233 236 238
284 276 266 257 251 248 246 243 236 227 220 216 214 213 212 213 213 211 209 208 209 210 211 211 209 208 206 206 205 204 204 203 201 201 201 201 201 201 202 203 203 202 202 203 204 205 207 208 209 209 209 210 211 212 212 213 214 215 216 218 220 222 224 226 228 231 233 236 238
284 277 268 259 252 248 246 243 236 227 219 215 212 210 209 210 210 209 208 207 208 208 208 207 205 205 205 205 204 203 203 202 201 200 200 201 201 202 202 203 202 202 203 204 205 206 208 209 209 209 209 210 211 211 212 213 214 215 216 217 219 221 223 226 228 230 233 235 238
281 276 269 261 254 249 245 242 236 227 219 214 211 209 209 209 209 209 208 207 207 207 207 205 204 204 204 204 203 203 202 202 201 201 201 201 202 202 202 202 202 202 203 204 206 207 208 209 210 210 210 210 210 210 211 212 213 214 215 217 219 221 223 225 228 230 233 235 239
276 273 269 263 256 249 245 241 235 227 220 214 211 209 209 210 210 210 209 208 207 207 207 206 204 204 203 202 202 201 201 201 201 202 202 202 202 202 201 201 201 203 204 206 207 208 209 210 210 210 210 209 210 210 211 212 213 214 215 216 218 220 222 225 227 230 233 236 241
274 270 266 263 257 250 244 239 234 227 220 214 210 208 208 209 210 210 209 208 208 207 207 206 205 203 202 200 199 199 200 201 202 203 203 202 202 201 200 200 201 203 205 206 207 208 209 210 210 210 210 210 210 211 212 212 213 214 215 216 218 219 222 224 227 230 234 239 244
274 268 264 261 256 249 243 237 232 226 219 214 210 207 206 206 207 208 209 208 207 207 207 206 203 202 201 199 197 197 199 201 203 203 203 202 201 200 200 201 202 204 206 207 208 208 209 210 210 210 210 210 210 211 212 213 213 214 215 216 218 219 222 224 228 232 237 242 248